Weather reports worldwide

Advertisment
Olbia/Costa Smeralda, Italy (16531): temperature & dewpoint: 30.03.2020 22:00:00 - 05.04.2020 22:00:00 (CEST)Olbia/Costa Smeralda, Italy (16531): wind speed: 30.03.2020 22:00:00 - 05.04.2020 22:00:00 (CEST)Olbia/Costa Smeralda, Italy (16531): wind direction: 30.03.2020 22:00:00 - 05.04.2020 22:00:00 (CEST)Olbia/Costa Smeralda, Italy (16531): reduced air pressure: 30.03.2020 22:00:00 - 05.04.2020 22:00:00 (CEST)Olbia/Costa Smeralda, Italy (16531): visibility: 30.03.2020 22:00:00 - 05.04.2020 22:00:00 (CEST)Olbia/Costa Smeralda, Italy (16531): precipitation: 30.03.2020 22:00:00 - 05.04.2020 22:00:00 (CEST)
Date & Time tt [°C] td [°C] ff [km/h] ff [kn] dd ppp [hPa] vv [km] rr [mm]
05.04.2020 22:00:00 9,0 4,0 4 2 - - 10 -
05.04.2020 21:00:00 12,0 4,0 4 2 - - 10 -
05.04.2020 20:00:00 14,6 5,1 4 2 - 1020,1 10 -
05.04.2020 19:00:00 17,0 0,0 13 7 NE - 10 -
05.04.2020 18:00:00 17,0 3,0 13 7 NE - 10 -
05.04.2020 17:00:00 17,3 2,5 18 10 ENE 1019,7 10 0,0
05.04.2020 16:00:00 18,0 2,0 16 9 NE - 10 -
05.04.2020 15:00:00 18,0 4,0 21 11 N - 10 -
05.04.2020 14:00:00 17,4 3,6 21 11 N 1020,8 10 -
05.04.2020 13:00:00 18,0 5,0 22 12 NNE - 10 -
05.04.2020 12:00:00 17,0 6,0 28 15 NNE - 10 -
05.04.2020 11:00:00 16,8 3,3 29 16 NNE 1021,6 10 0,0
05.04.2020 10:00:00 16,0 6,0 28 15 N - 10 -
05.04.2020 09:00:00 12,0 8,0 5 3 - - 10 -
05.04.2020 08:00:00 5,6 4,5 5 3 SE 1021,3 10 -
05.04.2020 07:00:00 - - - - - - - -
05.04.2020 06:00:00 - - - - - - - -
05.04.2020 05:00:00 3,6 2,1 4 2 SSE 1020,5 - 0,0
05.04.2020 04:00:00 - - - - - - - -
05.04.2020 03:00:00 - - - - - - - -
05.04.2020 02:00:00 6,4 2,7 11 6 SW 1021,1 - -
05.04.2020 01:00:00 - - - - - - - -
05.04.2020 00:00:00 - - - - - - - -
04.04.2020 23:00:00 9,0 3,7 5 3 WSW 1020,8 10 0,0
04.04.2020 22:00:00 14,0 4,0 5 3 WNW - 10 -
04.04.2020 21:00:00 14,0 6,0 9 5 WNW - 10 -
04.04.2020 20:00:00 16,2 0,0 13 7 NNW 1018,6 10 -
04.04.2020 19:00:00 18,0 -1,0 21 11 N - 10 -
04.04.2020 18:00:00 18,0 -1,0 22 12 NNE - 10 -
04.04.2020 17:00:00 18,4 -0,8 26 14 NNE 1018,3 10 0,0
04.04.2020 16:00:00 18,0 0,0 26 14 NNE - 10 -
04.04.2020 15:00:00 18,0 2,0 28 15 N - 10 -
04.04.2020 14:00:00 17,7 2,5 26 14 NNE 1018,8 10 -
04.04.2020 13:00:00 18,0 2,0 26 14 NNE - 10 -
04.04.2020 12:00:00 17,0 5,0 31 17 NNE - 10 -
04.04.2020 11:00:00 16,5 5,0 26 14 N 1018,9 10 0,0
04.04.2020 10:00:00 15,0 7,0 9 5 NW - 10 -
04.04.2020 09:00:00 10,0 8,0 13 7 WSW - 10 -
04.04.2020 08:00:00 7,5 6,6 9 5 SW 1017,4 10 -
04.04.2020 07:00:00 - - - - - - - -
04.04.2020 06:00:00 - - - - - - - -
04.04.2020 05:00:00 6,8 6,3 9 5 SW 1016,0 - 0,0
04.04.2020 04:00:00 - - - - - - - -
04.04.2020 03:00:00 - - - - - - - -
04.04.2020 02:00:00 4,9 4,2 4 2 SSE 1015,9 - -
04.04.2020 01:00:00 - - - - - - - -
04.04.2020 00:00:00 - - - - - - - -
03.04.2020 23:00:00 7,8 6,8 5 3 SSW 1015,0 10 0,0
03.04.2020 22:00:00 8,0 7,0 2 1 S - 10 -
03.04.2020 21:00:00 11,0 7,0 4 2 - - 10 -
03.04.2020 20:00:00 12,3 8,0 4 2 E 1013,4 10 -
03.04.2020 19:00:00 13,0 8,0 9 5 ENE - 10 -
03.04.2020 18:00:00 14,0 9,0 11 6 E - 10 -
03.04.2020 17:00:00 14,7 8,7 15 8 ENE 1012,4 10 0,0
03.04.2020 16:00:00 15,0 8,0 16 9 ENE - 10 -
03.04.2020 15:00:00 15,0 9,0 18 10 NE - 10 -
03.04.2020 14:00:00 15,8 8,3 16 9 NE 1012,7 10 -
03.04.2020 13:00:00 15,0 9,0 13 7 NE - 10 -
03.04.2020 12:00:00 15,0 8,0 13 7 NE - 10 -
03.04.2020 11:00:00 14,7 8,0 8 4 - 1012,6 10 0,0
03.04.2020 10:00:00 11,0 10,0 2 1 - - 10 -
03.04.2020 09:00:00 9,0 9,0 2 1 - - 10 -
03.04.2020 08:00:00 8,2 7,5 2 1 - 1011,9 10 -
03.04.2020 07:00:00 - - - - - - - -
03.04.2020 06:00:00 - - - - - - - -
03.04.2020 05:00:00 6,6 5,9 2 1 N 1011,3 - 0,0
03.04.2020 04:00:00 - - - - - - - -
03.04.2020 03:00:00 - - - - - - - -
03.04.2020 02:00:00 8,0 6,9 2 1 - 1012,0 - -
03.04.2020 01:00:00 - - - - - - - -
03.04.2020 00:00:00 - - - - - - - -
02.04.2020 23:00:00 9,4 6,0 2 1 - 1012,6 10 0,0
02.04.2020 22:00:00 12,0 7,0 2 1 - - 10 -
02.04.2020 21:00:00 12,0 7,0 2 1 - - 10 -
02.04.2020 20:00:00 12,2 7,2 5 3 E 1012,0 10 -
02.04.2020 19:00:00 13,0 7,0 9 5 E - 10 -
02.04.2020 18:00:00 13,0 6,0 15 8 E - 10 -
02.04.2020 17:00:00 14,1 6,1 15 8 E 1011,9 10 0,0
02.04.2020 16:00:00 14,0 6,0 16 9 ESE - 10 -
02.04.2020 15:00:00 14,0 5,0 15 8 ESE - 10 -
02.04.2020 14:00:00 13,7 5,5 18 10 E 1013,4 10 -
02.04.2020 13:00:00 14,0 4,0 16 9 E - 10 -
02.04.2020 12:00:00 14,0 4,0 15 8 ESE - 10 -
02.04.2020 11:00:00 12,0 4,4 4 2 - 1014,3 10 0,0
02.04.2020 10:00:00 9,0 4,0 2 1 - - 10 -
02.04.2020 09:00:00 8,0 5,0 2 1 - - 10 -
02.04.2020 08:00:00 7,0 4,5 4 2 - 1014,4 10 -
02.04.2020 07:00:00 - - - - - - - -
02.04.2020 06:00:00 - - - - - - - -
02.04.2020 05:00:00 5,7 4,0 2 1 N 1014,8 - 0,0
02.04.2020 04:00:00 - - - - - - - -
02.04.2020 03:00:00 - - - - - - - -
02.04.2020 02:00:00 4,5 2,5 0 0 N 1016,4 - -
02.04.2020 01:00:00 - - - - - - - -
02.04.2020 00:00:00 - - - - - - - -
01.04.2020 23:00:00 5,5 2,4 8 4 W 1017,3 10 0,0
01.04.2020 22:00:00 7,0 2,0 5 3 SW - 10 -
01.04.2020 21:00:00 7,0 1,0 4 2 SSE - 10 -
01.04.2020 20:00:00 9,0 1,3 2 1 - 1016,9 10 -
01.04.2020 19:00:00 10,0 -1,0 8 4 ENE - 10 -
01.04.2020 18:00:00 11,0 -1,0 11 6 ENE - 10 -
01.04.2020 17:00:00 11,1 -0,7 16 9 ENE 1018,0 10 0,0
01.04.2020 16:00:00 12,0 -2,0 16 9 NE - 10 -
01.04.2020 15:00:00 12,0 -2,0 22 12 ENE - 10 -
01.04.2020 14:00:00 11,6 -3,0 22 12 NE 1019,4 10 -
01.04.2020 13:00:00 12,0 -3,0 24 13 NNE - 10 -
01.04.2020 12:00:00 11,0 -2,0 28 15 NE - 10 -
01.04.2020 11:00:00 11,2 -3,1 28 15 NE 1020,7 10 0,0
01.04.2020 10:00:00 11,0 -5,0 28 15 NE - 10 -
01.04.2020 09:00:00 10,0 -4,0 28 15 NE - 10 -
01.04.2020 08:00:00 9,2 -2,8 22 12 NNE 1020,5 10 -
01.04.2020 07:00:00 - - - - - - - -
01.04.2020 06:00:00 - - - - - - - -
01.04.2020 05:00:00 9,4 0,3 18 10 NNE 1019,8 - 0,0
01.04.2020 04:00:00 - - - - - - - -
01.04.2020 03:00:00 - - - - - - - -
01.04.2020 02:00:00 11,2 1,9 22 12 NNE 1019,9 - -
01.04.2020 01:00:00 - - - - - - - -
01.04.2020 00:00:00 - - - - - - - -
31.03.2020 23:00:00 11,7 7,2 22 12 NE 1018,9 10 0,0
31.03.2020 22:00:00 12,0 8,0 16 9 NNE - 10 -
31.03.2020 21:00:00 12,0 9,0 22 12 NNE - 10 -
31.03.2020 20:00:00 12,6 9,1 26 14 NNE 1016,6 10 -
31.03.2020 19:00:00 14,0 11,0 22 12 NE - 10 -
31.03.2020 18:00:00 16,0 10,0 11 6 ENE - 10 -
31.03.2020 17:00:00 16,5 9,8 9 5 NE 1014,9 10 0,0
31.03.2020 16:00:00 17,0 11,0 13 7 ENE - 10 -
31.03.2020 15:00:00 17,0 11,0 15 8 ENE - 10 -
31.03.2020 14:00:00 16,8 11,1 13 7 ENE 1015,4 10 -
31.03.2020 13:00:00 17,0 11,0 13 7 NE - 10 -
31.03.2020 12:00:00 17,0 10,0 2 1 - - 10 -
31.03.2020 11:00:00 16,4 10,5 4 2 - 1015,9 10 0,0
31.03.2020 10:00:00 14,0 11,0 8 4 WSW - 10 -
31.03.2020 09:00:00 12,0 10,0 5 3 SSW - 8 -
31.03.2020 08:00:00 10,6 9,8 8 4 SW 1015,5 7 -
31.03.2020 07:00:00 - - - - - - - -
31.03.2020 06:00:00 - - - - - - - -
31.03.2020 05:00:00 7,4 7,0 2 1 N 1014,6 - 0,0
31.03.2020 04:00:00 - - - - - - - -
31.03.2020 03:00:00 - - - - - - - -
31.03.2020 02:00:00 8,8 8,0 0 0 N 1014,9 - -
31.03.2020 01:00:00 - - - - - - - -
31.03.2020 00:00:00 - - - - - - - -
30.03.2020 23:00:00 10,6 9,7 2 1 - 1014,8 5 0,0
30.03.2020 22:00:00 11,0 10,0 4 2 SSE - 10 -

tt = temperature
td = dewpoint
ff = wind speed
dd = wind direction
ppp = reduced air pressure
vv = visibility
rr = precipitation

Next stations